When you browse on this site, cookies collect data to enhance your experience and personalize the content and advertising you see.
Visit our Privacy Policy to learn more. By continuing to use the site, you agree to this use of cookies and data.
  • In Switzerland
  • List of Countries
  • For 7 days
  • Water Temperature
  • Weather Map
  • Weather Widgets
  • user-avatar
    Login

    Hourly Weather Bar

    Today, 15 November, Friday

    Time Temperature Precipitation Wind Pressure Humidity
    00:00 +2°C° 0 mm 1 mps 610 mmHg 93%
    01:00 +2°C° 0 mm 1 mps 610 mmHg 93%
    02:00 +2°C° 0 mm 1 mps 610 mmHg 91%
    03:00 +1°C° 0 mm 1 mps 610 mmHg 90%
    04:00 +1°C° 0 mm 1 mps 610 mmHg 88%
    05:00 +1°C° 0 mm 1 mps 610 mmHg 88%
    06:00 +1°C° 0 mm 1 mps 610 mmHg 87%
    07:00 +2°C° 0 mm 1 mps 611 mmHg 88%
    08:00 +3°C° 0 mm 1 mps 611 mmHg 84%
    09:00 +5°C° 0 mm 1 mps 612 mmHg 81%
    10:00 +6°C° 0 mm 1 mps 612 mmHg 77%
    11:00 +5°C° 0 mm 2 mps 612 mmHg 77%
    12:00 +6°C° 0 mm 2 mps 613 mmHg 76%
    13:00 +6°C° 0 mm 2 mps 613 mmHg 76%
    14:00 +5°C° 0 mm 2 mps 613 mmHg 79%
    15:00 +5°C° 0 mm 2 mps 612 mmHg 82%
    16:00 +4°C° 0 mm 2 mps 612 mmHg 85%
    17:00 +4°C° 0 mm 2 mps 612 mmHg 87%
    18:00 +4°C° 0 mm 2 mps 612 mmHg 88%
    19:00 +3°C° 0 mm 2 mps 612 mmHg 89%
    20:00 +3°C° 0.1 mm 2 mps 613 mmHg 90%
    21:00 +3°C° 0.1 mm 2 mps 613 mmHg 92%
    22:00 +3°C° 0.1 mm 2 mps 613 mmHg 93%
    23:00 +3°C° 0.2 mm 2 mps 613 mmHg 93%

    Tomorrow, 16 November, Saturday

    Time Temperature Precipitation Wind Pressure Humidity
    00:00 +3°C° 0.2 mm 2 mps 613 mmHg 93%
    01:00 +3°C° 0.2 mm 2 mps 613 mmHg 93%
    02:00 +3°C° 0.1 mm 2 mps 614 mmHg 93%
    03:00 +3°C° 0.1 mm 2 mps 614 mmHg 92%
    04:00 +3°C° 0.1 mm 2 mps 614 mmHg 91%
    05:00 +3°C° 0.1 mm 2 mps 614 mmHg 92%
    06:00 +3°C° 0.1 mm 2 mps 614 mmHg 93%
    07:00 +3°C° 0.1 mm 2 mps 614 mmHg 94%
    08:00 +4°C° 0.1 mm 2 mps 614 mmHg 88%
    09:00 +5°C° 0.1 mm 2 mps 615 mmHg 82%
    10:00 +6°C° 0.1 mm 2 mps 616 mmHg 76%
    11:00 +6°C° 0 mm 2 mps 615 mmHg 74%
    12:00 +7°C° 0 mm 2 mps 615 mmHg 72%
    13:00 +7°C° 0 mm 2 mps 615 mmHg 70%
    14:00 +6°C° 0 mm 2 mps 615 mmHg 75%
    15:00 +6°C° 0 mm 1 mps 614 mmHg 79%
    16:00 +5°C° 0 mm 1 mps 613 mmHg 84%
    17:00 +5°C° 0 mm 1 mps 613 mmHg 84%
    18:00 +4°C° 0 mm 1 mps 613 mmHg 85%
    19:00 +4°C° 0 mm 1 mps 613 mmHg 86%
    20:00 +3°C° 0 mm 1 mps 613 mmHg 84%
    21:00 +3°C° 0 mm 1 mps 613 mmHg 82%
    22:00 +3°C° 0 mm 1 mps 613 mmHg 81%
    23:00 +3°C° 0 mm 1 mps 613 mmHg 78%

    Day after tomorrow, 17 November, Sunday

    Time Temperature Precipitation Wind Pressure Humidity
    00:00 +3°C° 0 mm 1 mps 613 mmHg 76%
    01:00 +2°C° 0 mm 1 mps 612 mmHg 74%
    02:00 +2°C° 0 mm 1 mps 612 mmHg 72%
    03:00 +2°C° 0 mm 1 mps 612 mmHg 69%
    04:00 +3°C° 0 mm 1 mps 612 mmHg 67%
    05:00 +3°C° 0 mm 1 mps 612 mmHg 66%
    06:00 +2°C° 0 mm 1 mps 612 mmHg 65%
    07:00 +2°C° 0 mm 1 mps 612 mmHg 63%
    08:00 +4°C° 0 mm 1 mps 612 mmHg 62%
    09:00 +6°C° 0 mm 1 mps 613 mmHg 60%
    10:00 +8°C° 0 mm 1 mps 613 mmHg 58%
    11:00 +8°C° 0 mm 1 mps 613 mmHg 59%
    12:00 +8°C° 0 mm 1 mps 613 mmHg 59%
    13:00 +9°C° 0 mm 1 mps 613 mmHg 59%
    14:00 +8°C° 0 mm 1 mps 612 mmHg 64%
    15:00 +6°C° 0 mm 1 mps 612 mmHg 69%
    16:00 +5°C° 0 mm 1 mps 611 mmHg 74%
    17:00 +5°C° 0 mm 1 mps 611 mmHg 72%
    18:00 +4°C° 0 mm 1 mps 610 mmHg 69%
    19:00 +4°C° 0 mm 1 mps 610 mmHg 67%
    20:00 +4°C° 0 mm 1 mps 610 mmHg 66%
    21:00 +2°C° 0 mm 2 mps 610 mmHg 66%
    22:00 +2°C° 0 mm 2 mps 609 mmHg 65%
    23:00 +2°C° 1.4 mm 2 mps 609 mmHg 74%

    18 November, Monday

    Time Temperature Precipitation Wind Pressure Humidity
    00:00 +1°C° 1.4 mm 3 mps 609 mmHg 83%
    01:00 +1°C° 1.4 mm 3 mps 610 mmHg 92%
    02:00 +1°C° 1.9 mm 3 mps 610 mmHg 93%
    03:00 +1°C° 1.9 mm 3 mps 610 mmHg 94%
    04:00 0°C° 1.9 mm 3 mps 610 mmHg 95%
    05:00 +1°C° 0.2 mm 2 mps 610 mmHg 95%
    06:00 +1°C° 0.2 mm 2 mps 611 mmHg 96%
    07:00 +1°C° 0.2 mm 2 mps 611 mmHg 96%
    08:00 +2°C° 0.4 mm 2 mps 611 mmHg 93%
    09:00 +2°C° 0.4 mm 2 mps 612 mmHg 91%
    10:00 +2°C° 0.4 mm 3 mps 613 mmHg 89%
    11:00 +2°C° 0.3 mm 3 mps 613 mmHg 85%
    12:00 +3°C° 0.3 mm 3 mps 613 mmHg 82%
    13:00 +3°C° 0.3 mm 3 mps 613 mmHg 79%
    14:00 +3°C° 0 mm 2 mps 613 mmHg 83%
    15:00 +3°C° 0 mm 2 mps 613 mmHg 87%
    16:00 +3°C° 0 mm 1 mps 613 mmHg 91%
    17:00 +2°C° 0 mm 1 mps 613 mmHg 91%
    18:00 +2°C° 0 mm 1 mps 613 mmHg 92%
    19:00 +2°C° 0 mm 1 mps 613 mmHg 92%
    20:00 +1°C° 0 mm 1 mps 613 mmHg 89%
    21:00 +1°C° 0 mm 1 mps 613 mmHg 86%
    22:00 +1°C° 0 mm 1 mps 613 mmHg 84%
    23:00 +1°C° 0 mm 1 mps 613 mmHg 82%

    19 November, Tuesday

    Time Temperature Precipitation Wind Pressure Humidity
    00:00 +1°C° 0 mm 1 mps 613 mmHg 81%
    01:00 +1°C° 0 mm 1 mps 613 mmHg 80%
    02:00 +1°C° 0 mm 1 mps 613 mmHg 81%
    03:00 +1°C° 0 mm 1 mps 613 mmHg 83%
    04:00 +1°C° 0 mm 1 mps 612 mmHg 85%
    05:00 +1°C° 0 mm 1 mps 613 mmHg 87%
    06:00 +1°C° 0 mm 1 mps 613 mmHg 89%
    07:00 +1°C° 0 mm 1 mps 613 mmHg 91%
    08:00 +1°C° 0.1 mm 2 mps 613 mmHg 87%
    09:00 +2°C° 0.1 mm 2 mps 614 mmHg 83%
    10:00 +4°C° 0.1 mm 2 mps 614 mmHg 79%
    11:00 +4°C° 0.1 mm 2 mps 614 mmHg 76%
    12:00 +4°C° 0.1 mm 3 mps 614 mmHg 74%
    13:00 +4°C° 0.1 mm 3 mps 614 mmHg 71%
    14:00 +4°C° 0.1 mm 2 mps 613 mmHg 77%
    15:00 +3°C° 0.1 mm 2 mps 612 mmHg 83%
    16:00 +3°C° 0.1 mm 1 mps 612 mmHg 89%
    17:00 +3°C° 0.1 mm 1 mps 612 mmHg 89%
    18:00 +2°C° 0.1 mm 1 mps 611 mmHg 90%
    19:00 +2°C° 0.1 mm 1 mps 611 mmHg 90%
    20:00 +2°C° 0.3 mm 1 mps 611 mmHg 91%
    21:00 +2°C° 0.3 mm 1 mps 611 mmHg 91%
    22:00 +2°C° 0.3 mm 1 mps 611 mmHg 92%
    23:00 +2°C° 1.6 mm 1 mps 611 mmHg 93%

    20 November, Wednesday

    Time Temperature Precipitation Wind Pressure Humidity
    00:00 +2°C° 1.6 mm 1 mps 611 mmHg 95%
    01:00 +2°C° 1.6 mm 1 mps 611 mmHg 96%
    02:00 +2°C° 3.2 mm 1 mps 611 mmHg 97%
    03:00 +1°C° 3.2 mm 1 mps 611 mmHg 97%
    04:00 +1°C° 3.2 mm 1 mps 611 mmHg 97%
    05:00 +1°C° 0.5 mm 1 mps 611 mmHg 97%
    06:00 +1°C° 0.5 mm 1 mps 611 mmHg 97%
    07:00 +2°C° 0.5 mm 1 mps 612 mmHg 96%
    08:00 +2°C° 0.1 mm 1 mps 612 mmHg 94%
    09:00 +3°C° 0.1 mm 1 mps 613 mmHg 91%
    10:00 +4°C° 0.1 mm 1 mps 613 mmHg 89%
    11:00 +4°C° 0.1 mm 1 mps 613 mmHg 86%
    12:00 +4°C° 0.1 mm 2 mps 613 mmHg 84%
    13:00 +4°C° 0.1 mm 2 mps 613 mmHg 81%
    14:00 +4°C° 0 mm 1 mps 613 mmHg 85%
    15:00 +4°C° 0 mm 1 mps 613 mmHg 88%
    16:00 +3°C° 0 mm 1 mps 613 mmHg 92%
    17:00 +2°C° 0 mm 1 mps 613 mmHg 92%
    18:00 +2°C° 0 mm 1 mps 613 mmHg 91%
    19:00 +1°C° 0 mm 1 mps 613 mmHg 91%
    20:00 +1°C° 0 mm 1 mps 613 mmHg 90%
    21:00 +1°C° 0 mm 1 mps 613 mmHg 89%
    22:00 +1°C° 0 mm 1 mps 613 mmHg 89%
    23:00 +1°C° 0 mm 1 mps 613 mmHg 89%
    Show more